Weather History for Hayward, WI

Change the Weather History Date:

Wednesday, November 21, 2012

  Actual Average Record
Temperature  
Mean Temperature 39 °F -  
Max Temperature 57 °F 31 °F 57 °F (2012)
Min Temperature 21 °F 8 °F 0 °F (2000)
Degree Days  
Heating Degree Days 26    
Moisture  
Dew Point 34 °F    
Average Humidity 74    
Maximum Humidity 92    
Minimum Humidity 53    
Precipitation  
Precipitation 0.00 in - - ()
Sea Level Pressure  
Sea Level Pressure 29.94 in    
Wind  
Wind Speed 3 mph (South)    
Max Wind Speed 13 mph    
Max Gust Speed 28 mph    
Visibility 9 miles    
Events      
Averages and records for this station are not official NWS values.
T = Trace of Precipitation, MM = Missing Value Source: NWS Daily Summary

Daily Weather History Graph

Daily Weather History Graph

Search for Another Location

Airport:

Trip Planner

Search our weather history database for the weather conditions in past years. The results will help you decide how hot, cold, wet, or windy it might be!

Date:

Astronomy

Nov. 21, 2012 Rise Set
Actual Time 7:15 AM CST 4:27 PM CST
Civil Twilight 6:42 AM CST 5:01 PM CST
Nautical Twilight 6:05 AM CST 5:37 PM CST
Astronomical Twilight 5:29 AM CST 6:13 PM CST
Moon 1:02 PM CST (11/21) 12:14 AM CST (11/21)
Length of Visible Light 10h 18m
Length of Day
9h 12m
First Quarter, 62% of the Moon is Illuminated
Nov 21
First Quarter
Nov 28
Full
Dec 6
Last Quarter
Dec 13
New
Dec 19
First Quarter

Hourly Weather History & Observations

Time (CST) Temp. Windchill Dew Point Humidity Pressure Visibility Wind Dir Wind Speed Gust Speed Precip Events Conditions
12:53 AM 21.9 °F - 19.9 °F 92% 30.10 in 7.0 mi Calm Calm - N/A   Clear
1:53 AM 25.0 °F - 23.0 °F 92% 30.09 in 6.0 mi Calm Calm - N/A   Clear
2:53 AM 34.0 °F 31.0 °F 30.0 °F 85% 30.06 in 7.0 mi South 3.5 mph - N/A   Clear
3:53 AM 37.0 °F 34.5 °F 33.1 °F 86% 30.03 in 8.0 mi South 3.5 mph - N/A   Clear
4:53 AM 36.0 °F - 32.0 °F 86% 30.03 in 7.0 mi Calm Calm - N/A   Clear
5:53 AM 36.0 °F 33.3 °F 32.0 °F 86% 30.02 in 7.0 mi South 3.5 mph - N/A   Clear
6:53 AM 36.0 °F 33.3 °F 30.9 °F 82% 30.01 in 8.0 mi South 3.5 mph - N/A   Clear
7:53 AM 37.0 °F 32.4 °F 32.0 °F 82% 30.01 in 6.0 mi South 5.8 mph - N/A   Haze
8:53 AM 39.9 °F 37.8 °F 34.0 °F 79% 30.01 in 7.0 mi South 3.5 mph - N/A   Clear
9:53 AM 43.0 °F 39.5 °F 36.0 °F 76% 29.99 in 8.0 mi South 5.8 mph - N/A   Clear
10:53 AM 48.9 °F - 36.0 °F 61% 29.98 in 10.0 mi Variable 5.8 mph - N/A   Clear
11:53 AM 50.0 °F - 35.1 °F 57% 29.96 in 10.0 mi Variable 5.8 mph - N/A   Clear
12:53 PM 51.1 °F - 36.0 °F 56% 29.94 in 10.0 mi SSW 5.8 mph - N/A   Clear
1:53 PM 52.0 °F - 36.0 °F 54% 29.92 in 10.0 mi South 5.8 mph - N/A   Clear
2:53 PM 54.0 °F - 37.0 °F 53% 29.91 in 10.0 mi South 6.9 mph - N/A   Clear
3:53 PM 51.1 °F - 37.0 °F 59% 29.90 in 10.0 mi SSE 4.6 mph - N/A   Clear
4:53 PM 42.1 °F - 35.1 °F 76% 29.90 in 10.0 mi Calm Calm - N/A   Clear
5:53 PM 37.0 °F - 32.0 °F 82% 29.89 in 10.0 mi Calm Calm - N/A   Clear
6:53 PM 33.1 °F - 30.0 °F 89% 29.87 in 10.0 mi Calm Calm - N/A   Clear
7:53 PM 42.1 °F 40.2 °F 35.1 °F 76% 29.83 in 10.0 mi Variable 3.5 mph - N/A   Clear
8:53 PM 46.9 °F - 37.9 °F 71% 29.82 in 10.0 mi South 3.5 mph - N/A   Clear
9:53 PM 46.0 °F 43.9 °F 37.9 °F 73% 29.80 in 10.0 mi South 4.6 mph - N/A   Clear
10:53 PM 57.0 °F - 42.1 °F 57% 29.76 in 10.0 mi SSW 12.7 mph 27.6 mph N/A   Clear
11:53 PM 57.0 °F - 42.1 °F 57% 29.74 in 10.0 mi SSW 10.4 mph 18.4 mph N/A   Clear